Regional Weather Roundup
Issued by NWS

Home | Current Version | Previous Version | Graphics & Text | Print | Product List | Glossary On
Versions: 1 2 3 4 5 6 7 8 9 10 11 12 13 14 15 16 17 18 19 20 21 22 23 24 25 26 27 28 29 30 31 32 33 34 35 36 37 38 39 40 41 42 43 44 45 46 47 48 49 50
000
ASUS43 KOAX 110602
RWRNE

WEATHER ROUNDUP FOR NEBRASKA
NATIONAL WEATHER SERVICE OMAHA NE
1200 AM CST MON DEC 11 2017

NOTES: SATELLITE DATA IS BEING USED TO AUGMENT CLOUD COVER ABOVE
       12000 FEET.
       "FAIR" INDICATES FEW OR NO CLOUDS BELOW 12,000 FEET WITH NO
       SIGNIFICANT WEATHER AND/OR OBSTRUCTIONS TO VISIBILITY.


NEZ001>004-019>022-054>056-110700-
NEBRASKA PANHANDLE

CITY           SKY/WX    TMP DP  RH WIND       PRES   REMARKS
SCOTTSBLUFF    CLOUDY    29   9  43 NW5       30.28R WCI  24
6HR MIN TEMP:  29; 6HR MAX TEMP:  48;

ALLIANCE       CLOUDY    27  11  51 W12       30.23R WCI  17
6HR MIN TEMP:  25; 6HR MAX TEMP:  37;

CHADRON        CLEAR     44  13  28 W17       30.21F
6HR MIN TEMP:  34; 6HR MAX TEMP:  47;

GORDON         FAIR      42  17  36 W12G20    30.14F
6HR MIN TEMP:  41; 6HR MAX TEMP:  48;

KIMBALL        CLOUDY    39   4  22 W20       30.28R WCI  30
SIDNEY         CLOUDY    38   6  26 W14       30.26S WCI  30
6HR MIN TEMP:  29; 6HR MAX TEMP:  45;

$$

NEZ057>060-069>072-079>082-110700-
SOUTHWEST NEBRASKA

CITY           SKY/WX    TMP DP  RH WIND       PRES   REMARKS
NORTH PLATTE   CLOUDY    25  15  66 NW9       30.16F WCI  15
6HR MIN TEMP:  24; 6HR MAX TEMP:  49;

IMPERIAL       CLEAR     37   8  30 W13       30.22S WCI  29
6HR MIN TEMP:  35; 6HR MAX TEMP:  51;

LEXINGTON      CLOUDY    29  13  52 NW10      30.13F WCI  20
MCCOOK         CLOUDY    32   9  38 W10       30.20S WCI  24
6HR MIN TEMP:  30; 6HR MAX TEMP:  54;

OGALLALA       CLOUDY    35  10  34 SW8       30.21S WCI  28
$$

NEZ005>010-023>029-035>040-094-110700-
NORTH CENTRAL NEBRASKA

CITY           SKY/WX    TMP DP  RH WIND       PRES   REMARKS
VALENTINE      PTCLDY    35  18  49 W9        30.09R WCI  28
6HR MIN TEMP:  34; 6HR MAX TEMP:  47;

AINSWORTH      CLEAR     42  17  37 W13       30.06F
BROKEN BOW     CLOUDY    48  12  23 NW21      30.08F
6HR MIN TEMP:  34; 6HR MAX TEMP:  50;

O`NEILL        PTCLDY    42  19  39 W10       30.02F
ORD            PTCLDY    36  15  42 NW5       30.05F WCI  32
6HR MIN TEMP:  31; 6HR MAX TEMP:  48;

THEDFORD       CLOUDY    38  17  42 W10       30.13S WCI  30
$$

NEZ041-046>049-061>064-073>077-083>087-110700-
SOUTH CENTRAL NEBRASKA

CITY           SKY/WX    TMP DP  RH WIND       PRES   REMARKS
GRAND ISLAND   CLEAR     38  15  39 W12       30.08F WCI  30
6HR MIN TEMP:  36; 6HR MAX TEMP:  46;

AURORA         CLEAR     38  15  39 W9        30.06F WCI  31
HASTINGS       CLEAR     41  12  30 W12       30.09F
6HR MIN TEMP:  35; 6HR MAX TEMP:  52;

HEBRON         CLEAR     38  15  38 W7        30.10S WCI  33
HOLDREGE       CLOUDY    43  13  30 W15       30.12F
KEARNEY        CLOUDY    44  11  26 W10       30.11F
YORK           CLOUDY    36  16  44 W12       30.05F WCI  27
$$

NEZ011>018-030>034-042>045-110700-
NORTHEAST NEBRASKA

CITY           SKY/WX    TMP DP  RH WIND       PRES   REMARKS
NORFOLK        CLOUDY    40  18  41 W8        30.00F WCI  34
6HR MIN TEMP:  32; 6HR MAX TEMP:  43;

ALBION         CLOUDY    41  16  36 NW7       30.03F
BLAIR          CLOUDY    38  23  54 SW3       30.01S
COLUMBUS       CLEAR     35  16  45 W7        30.04S WCI  29
FREMONT        CLOUDY    30  21  69 CALM      30.01F
TEKAMAH        PTCLDY    27  15  61 S5        30.01F WCI  22
6HR MIN TEMP:  24; 6HR MAX TEMP:  42;

WAYNE          PTCLDY    28  19  69 CALM      30.00F
$$

NEZ050>053-065>068-078-088>093-110700-
SOUTHEAST NEBRASKA

CITY           SKY/WX    TMP DP  RH WIND       PRES   REMARKS
LINCOLN        PTCLDY    28  19  69 S6        30.05F WCI  22
6HR MIN TEMP:  26; 6HR MAX TEMP:  44;

OMAHA EPPLEY   CLOUDY    33  23  66 SE5       30.02F WCI  29
6HR MIN TEMP:  29; 6HR MAX TEMP:  42;

BEATRICE       CLOUDY    32  17  53 W5        30.07S WCI  27
FALLS CITY     CLOUDY    28  19  69 S5        30.07F WCI  23
6HR MIN TEMP:  28; 6HR MAX TEMP:  49;

NEBRASKA CITY  CLOUDY    38  22  52 SW9       30.04S WCI  31
PLATTSMOUTH    CLOUDY    39  20  47 SW6       30.02F WCI  35
$$

NEZ044-045-051>053-067-110700-
OMAHA AREA

CITY           SKY/WX    TMP DP  RH WIND       PRES   REMARKS
OMAHA EPPLEY   CLOUDY    33  23  66 SE5       30.02F WCI  29
6HR MIN TEMP:  29; 6HR MAX TEMP:  42;

BLAIR          CLOUDY    38  23  54 SW3       30.01S
FREMONT        CLOUDY    30  21  69 CALM      30.01F
MILLARD        PTCLDY    31  24  76 CALM      30.03F
OFFUTT AFB     CLOUDY    25  20  80 CALM      30.01F
PLATTSMOUTH    CLOUDY    39  20  47 SW6       30.02F WCI  35
WAHOO          FAIR      30  18  61 CALM      30.02F
$$



USA.gov is the U.S. government's official web portal to all federal, state and local government web resources and services.